Vertical_Velocity
-1 -1 9 8 18 -3 3 -1 -2 3 2 4 -3 -0 3 3 4 14 2 3 0 -2 -2 -1 0 3 0 2 2 -2 1 -1 -0 0 -2 -2 3 -1 -1 0 0 -3 0 -2 -2 1 -1 -3 -1
1 3 -4 1 7 -1 8 2 1 3 1 1 -3 -1 1 6 -2 -5 -1 0 -2 -1 -2 -4 1 -1 0 2 -0 1 1 2 -2 -1 1 1 0 2 -0 -1 0 -0 -1 -1 1 -0 -2 -2 0
0 -0 15 3 -0 1 2 1 2 4 -1 -0 -0 -3 3 7 7 0 -5 -3 4 -4 2 -5 -0 -0 -1 0 2 -1 3 -1 -1 -1 -0 -1 -1 2 -1 0 1 -0 -2 -0 -1 -4 -1 -3 -2
2 5 2 2 2 6 -1 2 -0 3 4 -2 -2 0 -3 6 -2 2 -2 -2 1 -5 3 -5 -0 1 -0 -2 -1 -3 -3 -2 -2 -2 -0 -3 -1 -2 -1 -2 -2 -5 -2 -2 0 -3 -1 -1 0
0 -4 2 -2 4 3 2 -0 -1 0 0 -0 0 10 -0 -0 0 -1 -4 -2 2 1 -1 -4 -2 -2 -4 -2 -2 -4 -1 -2 -2 -0 -0 1 1 1 1 1 1 1 -1 -1 1 -1 0 -2 2
14 1 1 0 3 3 2 -2 -1 0 1 1 4 -2 6 -5 -2 -0 -0 -2 3 -2 3 -7 3 -0 -2 -2 -2 -1 1 -0 -0 2 -0 2 -0 2 0 1 -2 0 -0 1 -2 -1 -1 -1 0
10 3 1 0 2 3 0 -1 1 -1 -0 5 -7 -3 2 1 1 -0 -3 3 4 -3 2 -1 -1 -1 1 -0 0 1 2 2 2 0 1 0 -2 -1 -2 -0 1 1 -1 1 -0 -0 -2 -0 -1
6 6 1 0 0 9 2 1 -4 -1 6 1 -1 -2 4 -0 -2 -1 1 0 1 -1 -3 0 -3 -1 -1 -1 0 1 -1 1 -0 1 -0 -1 0 -1 -2 -1 0 0 0 -2 -3 -0 -2 -2 -0
-4 8 1 3 1 6 2 -1 1 -1 -6 1 2 1 -8 -3 0 0 0 1 -2 1 -2 -3 -2 1 0 -2 -1 -1 -0 1 0 -2 -2 -1 9 -0 -3 -3 -2 -1 0 -1 -1 0 -0 -3 -3
7 5 2 2 0 -1 -2 -2 -3 1 3 6 3 6 0 -2 -1 -1 -2 -0 1 -1 -1 1 5 5 -3 2 -4 -1 0 2 -1 0 0 -2 -3 1 -4 -3 -1 -2 1 1 -3 -3 -2 -2 7
-1 1 2 -0 -0 2 -3 4 -2 -0 5 -3 -6 -0 2 -2 -0 2 0 -1 -3 -3 1 -4 -4 -3 -4 4 1 -0 -0 4 -1 0 -1 0 -0 1 1 2 3 -0 -4 16 7 4 10 -3 -1
8 -1 1 -1 -1 3 -1 -0 1 -2 2 -3 3 -1 -2 -1 -1 -2 0 -1 1 -2 -1 -3 -2 -2 -1 1 -4 -2 -1 -2 -2 1 -3 -4 -3 -1 -3 3 -0 -6 1 -5 -3 9 -2 -1 -2
5 -3 -0 0 -1 1 4 -0 -5 0 -4 4 3 1 1 0 -1 1 0 2 1 -1 -2 -0 0 -3 -1 -4 0 -0 -4 -4 2 -2 -2 -1 2 2 2 -1 -3 -3 -6 2 -2 -1 -1 0 0
2 1 -1 -1 0 -0 0 2 -0 1 1 4 0 0 -0 -1 -4 1 1 -0 -0 1 -1 1 -3 -2 -1 -1 -2 -1 -1 1 -2 1 1 -2 0 8 1 3 0 -1 -2 4 -1 -2 -1 -2 1
-1 7 1 -0 -0 0 0 11 -1 -1 -3 0 0 1 1 -2 2 -3 -5 -5 -5 -5 -2 -1 -3 -2 0 -1 -0 -3 0 -3 1 -2 -3 -0 5 -2 -2 3 -3 -3 3 -4 0 -2 2 0 -1
8 11 7 5 2 2 10 -1 -1 -1 -0 1 1 -0 0 0 -1 -2 0 0 -1 3 -4 0 -0 0 -3 -1 -0 0 0 1 -2 4 8 0 -0 -4 -2 3 -2 -0 -2 2 8 1 -2 2 -0
7 -1 3 9 -1 -0 6 -3 3 -1 1 1 -0 1 -0 2 0 -1 -0 -2 2 -4 -0 -4 -2 -1 -0 -1 1 -1 2 4 6 1 -4 0 1 0 -3 -0 -0 -3 1 -3 4 1 -4 1 1
-4 4 2 -2 -1 5 4 0 2 -0 3 -1 -2 0 0 -1 -6 -0 -1 0 -0 0 1 1 1 0 1 9 4 3 3 -4 -1 -2 4 5 1 2 -3 -1 2 -1 -0 4 3 -8 7 -8 -3
-0 2 -1 -2 2 6 -3 -1 -1 -2 4 3 1 1 -0 -1 -2 2 -1 -1 -0 -1 -1 -1 -2 1 4 -1 -0 -0 2 -2 -2 3 1 5 -1 1 3 1 3 3 1 -2 -4 -1 7 -4 3
3 1 -3 2 1 11 0 -4 -3 0 -6 -4 -3 -0 -2 4 5 -2 -2 0 -1 -1 -1 -2 -3 -0 -1 -1 -2 5 4 2 -0 9 -5 -0 -2 0 -3 -3 -0 -3 3 -4 -2 -3 2 0 -3
-1 0 -1 -7 1 2 5 2 3 0 3 3 1 -3 1 -3 -2 -0 2 -3 1 -1 -4 -2 -3 -1 2 -1 -2 1 4 -3 -7 -1 -1 -1 2 1 6 2 -1 -4 -7 10 -3 -0 -5 10 -6
7 -4 1 2 7 -3 6 -8 1 -1 0 2 -1 0 -4 -1 -1 4 -0 1 -2 -4 -1 -1 -1 -1 1 1 2 0 2 4 5 -3 8 2 -1 0 0 -1 -1 -4 0 -2 3 -0 0 -10 3
-28 3 -2 1 2 14 10 13 -19 1 2 -2 -3 -2 -2 -5 -1 -3 -4 -4 -4 1 -3 -2 -0 0 1 1 -2 1 -5 4 -4 -2 -2 -6 -0 -2 -2 -3 -3 -5 -5 -3 -3 -1 -7 2 -3
-6 9 5 4 5 15 -14 4 -10 -1 -9 -3 -1 -2 -3 -2 -1 -2 0 -1 -2 1 -0 -2 -1 -3 2 -0 -1 -4 5 -8 6 -3 3 -1 1 -1 -0 2 1 1 -1 -2 0 -1 -2 -1 -3
15 13 5 15 15 -11 -2 17 -20 -4 -2 -3 -2 0 -6 0 -0 -2 -4 1 -2 -1 -1 -1 -2 -5 -2 -3 -0 -1 -4 -1 -3 -0 -2 7 2 4 2 2 2 -1 -2 1 -1 -0 1 -4 -1
-9 -2 -3 -9 -1 -10 2 -4 -30 -8 -4 -4 5 -3 -1 -0 -2 -3 -4 -5 -2 -2 -2 -2 -2 -4 0 1 -2 -1 -0 -2 -5 -1 5 -2 -0 -2 2 -2 1 1 0 -0 -3 -4 -3 5 3
-16 16 -25 13 -1 18 -9 3 10 0 -2 -1 -2 1 0 -2 -2 -0 -2 -3 -1 -1 -5 -7 -4 1 1 -2 -2 -1 2 -0 3 -1 -3 -4 -4 2 3 -2 -4 -1 -0 0 -2 -0 -6 -5 -6
9 -16 25 5 11 3 -4 -3 -10 2 -3 -3 1 -1 -1 0 2 5 0 -0 -2 -3 -1 1 1 -1 2 -0 -3 0 0 2 -2 -6 -8 -5 1 -1 3 4 2 -4 -10 1 1 4 1 1 -1
13 9 10 11 6 -1 -1 -18 -10 -5 -4 -2 -3 -4 -0 -1 -2 -3 -3 1 1 -2 1 -2 -2 -1 -2 -3 -6 1 1 -0 -4 -0 10 12 -3 -13 -4 -6 8 10 -2 -9 3 0 4 1 -0
-3 -10 -2 9 -13 -5 3 -25 -3 -2 -3 2 -5 1 5 0 1 -1 2 3 -2 -2 0 -4 0 -0 -5 -6 5 1 4 -2 -0 -1 1 -0 9 -7 -12 -6 1 4 3 -7 -5 0 6 -1 0
Height
1508 1509 1514 1512 1504 1489 1514 1516 1503 1509 1514 1519 1521 1521 1523 1527 1522 1533 1543 1546 1548 1550 1551 1553 1556 1557 1559 1561 1563 1564 1566 1568 1571 1573 1575 1577 1578 1579 1580 1581 1582 1582 1582 1582 1581 1581 1581 1580 1579
1509 1511 1513 1503 1491 1502 1506 1501 1505 1509 1516 1520 1523 1524 1523 1530 1533 1537 1544 1548 1551 1554 1556 1557 1558 1559 1562 1563 1565 1567 1569 1571 1573 1575 1577 1579 1581 1582 1582 1583 1583 1584 1583 1583 1583 1583 1582 1581 1580
1511 1512 1506 1493 1491 1500 1508 1503 1509 1516 1518 1519 1522 1524 1526 1534 1538 1541 1546 1550 1554 1556 1559 1558 1560 1562 1564 1566 1567 1569 1572 1574 1575 1578 1579 1581 1582 1583 1584 1585 1585 1585 1585 1584 1584 1583 1582 1582 1581
1512 1512 1505 1496 1503 1503 1503 1506 1512 1516 1519 1521 1522 1527 1535 1539 1542 1545 1548 1553 1556 1557 1560 1560 1562 1564 1566 1568 1570 1572 1574 1576 1578 1580 1581 1583 1584 1584 1585 1586 1587 1586 1586 1585 1585 1584 1583 1582 1581
1510 1505 1492 1498 1504 1503 1505 1510 1512 1512 1517 1521 1522 1528 1537 1542 1544 1547 1551 1555 1558 1560 1563 1564 1565 1566 1569 1570 1573 1574 1576 1578 1579 1581 1582 1584 1585 1586 1586 1587 1587 1586 1586 1586 1585 1584 1583 1582 1581
1503 1499 1489 1501 1506 1506 1508 1513 1514 1515 1520 1524 1525 1532 1539 1543 1546 1550 1553 1556 1559 1562 1564 1566 1567 1569 1571 1572 1574 1576 1578 1579 1581 1582 1584 1586 1587 1587 1588 1589 1589 1587 1587 1586 1585 1585 1584 1582 1581
1497 1491 1497 1494 1505 1507 1509 1513 1512 1516 1522 1524 1528 1530 1540 1544 1547 1551 1555 1558 1561 1564 1566 1569 1570 1570 1572 1573 1576 1578 1580 1581 1583 1584 1586 1587 1588 1589 1589 1589 1589 1587 1587 1586 1586 1585 1584 1583 1582
1500 1492 1496 1494 1496 1504 1508 1512 1515 1517 1521 1526 1529 1531 1538 1543 1548 1552 1556 1559 1562 1566 1568 1569 1571 1572 1574 1575 1577 1579 1581 1582 1584 1585 1586 1587 1588 1590 1590 1590 1588 1588 1587 1587 1585 1584 1583 1583 1582
1503 1491 1494 1493 1494 1500 1507 1509 1516 1519 1524 1528 1530 1531 1537 1543 1548 1552 1556 1559 1563 1566 1569 1571 1573 1573 1576 1578 1578 1580 1581 1583 1585 1586 1587 1588 1592 1592 1591 1590 1589 1588 1587 1586 1585 1584 1584 1583 1583
1498 1486 1488 1490 1490 1496 1505 1507 1514 1519 1523 1526 1531 1534 1538 1543 1547 1551 1555 1559 1563 1566 1569 1571 1574 1574 1577 1580 1580 1582 1583 1585 1586 1588 1588 1590 1591 1590 1590 1589 1588 1587 1586 1586 1586 1585 1585 1585 1587
1491 1489 1487 1490 1493 1493 1502 1508 1512 1513 1518 1522 1528 1533 1538 1543 1547 1551 1555 1558 1562 1565 1568 1569 1573 1574 1577 1579 1581 1583 1584 1586 1586 1586 1587 1590 1589 1590 1591 1590 1589 1588 1587 1589 1588 1587 1587 1584 1583
1491 1487 1489 1488 1494 1495 1499 1503 1510 1513 1514 1520 1526 1532 1536 1542 1546 1550 1554 1557 1561 1564 1567 1570 1572 1573 1576 1577 1580 1582 1584 1585 1586 1587 1586 1587 1588 1589 1588 1590 1589 1586 1588 1587 1586 1586 1584 1583 1581
1489 1486 1486 1487 1492 1493 1497 1502 1506 1512 1517 1520 1526 1531 1536 1541 1545 1549 1553 1557 1560 1563 1566 1569 1571 1571 1574 1575 1579 1581 1582 1583 1585 1585 1585 1586 1588 1587 1587 1586 1586 1585 1587 1587 1586 1585 1583 1582 1582
1481 1484 1484 1485 1487 1493 1496 1501 1507 1510 1515 1519 1525 1529 1534 1539 1542 1547 1551 1554 1558 1561 1564 1567 1568 1570 1571 1573 1575 1578 1580 1582 1583 1585 1585 1583 1585 1585 1586 1587 1586 1585 1586 1585 1584 1583 1581 1581 1580
1483 1485 1485 1484 1486 1491 1495 1503 1503 1506 1513 1518 1523 1528 1532 1536 1540 1544 1547 1551 1554 1558 1561 1564 1566 1568 1569 1571 1573 1575 1578 1580 1582 1582 1582 1582 1582 1583 1583 1585 1584 1585 1583 1581 1582 1580 1580 1580 1579
1482 1478 1481 1481 1486 1491 1493 1490 1497 1505 1510 1515 1520 1524 1529 1533 1537 1541 1544 1547 1551 1554 1557 1560 1563 1566 1567 1569 1571 1573 1576 1577 1579 1581 1581 1580 1581 1581 1582 1583 1583 1583 1581 1581 1581 1580 1580 1579 1579
1474 1480 1475 1482 1484 1489 1493 1486 1492 1502 1506 1510 1517 1521 1526 1530 1533 1536 1540 1544 1547 1551 1554 1556 1559 1562 1564 1565 1568 1571 1573 1574 1575 1577 1577 1578 1578 1579 1580 1581 1581 1579 1579 1577 1577 1578 1578 1577 1576
1474 1476 1467 1474 1481 1484 1488 1485 1493 1499 1501 1505 1512 1517 1521 1524 1527 1532 1536 1540 1544 1547 1550 1553 1555 1558 1561 1563 1565 1568 1570 1572 1574 1576 1575 1574 1575 1576 1576 1577 1577 1577 1576 1577 1577 1575 1576 1575 1574
1458 1464 1467 1463 1468 1479 1478 1481 1483 1496 1499 1500 1506 1511 1515 1518 1523 1528 1532 1536 1540 1543 1546 1549 1552 1554 1557 1559 1563 1566 1568 1571 1571 1573 1572 1572 1573 1573 1573 1575 1574 1574 1575 1575 1574 1574 1574 1573 1573
1458 1463 1464 1457 1467 1474 1471 1477 1478 1484 1492 1495 1499 1504 1509 1514 1518 1523 1526 1530 1534 1538 1542 1545 1547 1550 1552 1557 1560 1563 1565 1567 1568 1570 1570 1570 1571 1571 1570 1572 1573 1572 1574 1572 1572 1572 1572 1572 1571
1458 1460 1459 1460 1468 1470 1469 1477 1473 1474 1484 1490 1493 1497 1502 1506 1511 1516 1520 1524 1528 1532 1536 1539 1542 1546 1548 1552 1555 1558 1561 1563 1565 1567 1567 1567 1567 1568 1568 1568 1571 1570 1570 1572 1570 1570 1570 1570 1570
1461 1450 1453 1457 1468 1483 1468 1485 1464 1461 1473 1480 1486 1489 1493 1498 1503 1509 1514 1518 1522 1526 1530 1534 1537 1541 1544 1547 1551 1554 1557 1560 1562 1564 1565 1566 1565 1566 1566 1567 1567 1567 1569 1568 1568 1568 1568 1568 1570
1453 1445 1453 1456 1461 1467 1464 1479 1461 1458 1464 1466 1472 1477 1483 1488 1495 1501 1506 1512 1516 1521 1524 1528 1531 1535 1539 1543 1546 1550 1553 1556 1558 1560 1560 1560 1562 1562 1564 1564 1564 1563 1565 1565 1565 1566 1566 1568 1569
1449 1451 1450 1453 1457 1474 1458 1468 1464 1455 1458 1453 1458 1467 1473 1480 1487 1494 1500 1505 1509 1514 1518 1522 1525 1530 1534 1538 1540 1544 1549 1551 1554 1555 1557 1558 1560 1560 1560 1561 1560 1560 1563 1563 1564 1563 1564 1565 1567
1448 1454 1474 1481 1473 1472 1447 1459 1457 1442 1442 1447 1446 1452 1464 1472 1480 1485 1491 1496 1501 1506 1511 1515 1519 1523 1527 1531 1534 1538 1542 1546 1549 1552 1554 1556 1558 1559 1558 1558 1560 1561 1561 1562 1562 1562 1564 1565 1567
1441 1443 1454 1480 1471 1464 1447 1461 1448 1441 1443 1443 1442 1448 1454 1462 1468 1474 1480 1487 1493 1498 1503 1508 1512 1516 1520 1524 1528 1532 1536 1541 1545 1548 1551 1552 1554 1555 1557 1558 1559 1559 1559 1559 1558 1561 1563 1565 1565
1432 1438 1430 1442 1436 1448 1439 1443 1438 1435 1439 1438 1439 1442 1445 1451 1456 1464 1472 1478 1484 1490 1495 1499 1505 1510 1515 1519 1522 1526 1530 1534 1541 1545 1546 1549 1551 1554 1554 1553 1557 1558 1559 1558 1558 1558 1559 1560 1561
1417 1424 1446 1432 1456 1461 1446 1441 1442 1434 1432 1429 1430 1434 1437 1443 1449 1455 1461 1468 1474 1482 1488 1493 1498 1503 1509 1513 1516 1520 1524 1529 1534 1537 1538 1540 1545 1549 1552 1552 1552 1552 1556 1558 1557 1557 1556 1556 1557
1421 1420 1421 1423 1428 1446 1453 1438 1417 1426 1427 1427 1423 1427 1430 1434 1440 1446 1451 1459 1468 1475 1481 1486 1492 1497 1502 1506 1509 1514 1518 1523 1526 1530 1535 1540 1540 1545 1548 1552 1552 1551 1550 1554 1555 1554 1554 1554 1554
1404 1413 1415 1426 1436 1423 1428 1426 1404 1410 1418 1420 1419 1418 1420 1427 1432 1438 1445 1453 1460 1465 1473 1479 1485 1490 1494 1498 1502 1508 1513 1516 1519 1523 1526 1526 1537 1535 1539 1546 1550 1551 1549 1550 1553 1551 1550 1549 1550